TimeEST,TemperatureF,Dew PointF,Humidity,Sea Level PressureIn,VisibilityMPH,Wind Direction,Wind SpeedMPH,Gust SpeedMPH,PrecipitationIn,Events,Conditions,WindDirDegrees,DateUTC
12:53 AM,71.1,69.1,93,29.95,10.0,South,11.5,-,N/A,,Mostly Cloudy,190,2013-02-13 05:53:00
1:53 AM,71.1,69.1,93,29.95,10.0,South,11.5,-,N/A,,Mostly Cloudy,190,2013-02-13 06:53:00
2:53 AM,71.1,69.1,93,29.94,10.0,South,11.5,-,N/A,,Mostly Cloudy,190,2013-02-13 07:53:00
3:44 AM,69.8,69.8,100,29.94,10.0,South,9.2,-,N/A,,Mostly Cloudy,180,2013-02-13 08:44:00
3:53 AM,70.0,69.1,97,29.94,10.0,South,9.2,-,N/A,,Mostly Cloudy,180,2013-02-13 08:53:00
4:11 AM,69.8,69.8,100,29.93,9.0,South,11.5,-,N/A,,Mostly Cloudy,180,2013-02-13 09:11:00
4:53 AM,70.0,69.1,97,29.92,9.0,South,11.5,-,N/A,,Overcast,180,2013-02-13 09:53:00
5:53 AM,71.1,70.0,96,29.92,9.0,South,13.8,21.9,N/A,,Overcast,180,2013-02-13 10:53:00
6:40 AM,71.6,69.8,94,29.92,5.0,South,16.1,21.9,N/A,,Overcast,180,2013-02-13 11:40:00
6:53 AM,71.1,70.0,96,29.93,2.5,South,11.5,-,N/A,,Overcast,190,2013-02-13 11:53:00
7:01 AM,71.6,69.8,94,29.93,5.0,South,12.7,23.0,N/A,,Overcast,180,2013-02-13 12:01:00
7:28 AM,71.6,69.8,94,29.94,1.8,South,11.5,-,N/A,,Overcast,180,2013-02-13 12:28:00
7:53 AM,71.1,70.0,96,29.95,0.8,South,12.7,-,N/A,,Overcast,190,2013-02-13 12:53:00
8:53 AM,70.0,70.0,100,29.97,0.2,SSW,12.7,-,N/A,Fog,Fog,200,2013-02-13 13:53:00
9:53 AM,71.1,70.0,96,29.98,0.2,South,9.2,-,N/A,Fog,Fog,190,2013-02-13 14:53:00
10:39 AM,71.6,69.8,94,29.98,1.0,South,12.7,-,N/A,,Overcast,190,2013-02-13 15:39:00
10:53 AM,72.0,70.0,93,29.97,1.0,South,12.7,-,N/A,,Overcast,190,2013-02-13 15:53:00
11:00 AM,73.4,69.8,88,29.97,10.0,South,11.5,-,N/A,,Overcast,190,2013-02-13 16:00:00
11:41 AM,75.2,69.8,83,29.95,3.0,South,17.3,-,N/A,,Haze,190,2013-02-13 16:41:00
11:53 AM,77.0,70.0,79,29.95,10.0,South,17.3,20.7,N/A,,Mostly Cloudy,190,2013-02-13 16:53:00
12:04 PM,78.8,69.8,74,29.94,10.0,South,18.4,26.5,N/A,,Scattered Clouds,190,2013-02-13 17:04:00
12:53 PM,77.0,70.0,79,29.93,10.0,SSW,19.6,24.2,N/A,,Clear,200,2013-02-13 17:53:00
1:53 PM,78.1,70.0,76,29.90,10.0,SSW,16.1,24.2,N/A,,Partly Cloudy,210,2013-02-13 18:53:00
2:32 PM,78.8,69.8,74,29.89,10.0,SSW,16.1,25.3,N/A,,Scattered Clouds,200,2013-02-13 19:32:00
2:53 PM,78.1,70.0,76,29.88,10.0,SSW,17.3,-,N/A,,Scattered Clouds,200,2013-02-13 19:53:00
3:53 PM,75.9,70.0,82,29.88,10.0,SSW,16.1,24.2,N/A,,Scattered Clouds,200,2013-02-13 20:53:00
4:53 PM,75.0,70.0,84,29.88,10.0,South,16.1,-,N/A,,Scattered Clouds,190,2013-02-13 21:53:00
5:53 PM,73.9,71.1,91,29.88,8.0,SSW,15.0,-,N/A,,Scattered Clouds,200,2013-02-13 22:53:00
6:40 PM,73.4,71.6,94,29.88,8.0,SSW,13.8,-,N/A,,Mostly Cloudy,200,2013-02-13 23:40:00
6:48 PM,73.4,71.6,94,29.89,8.0,SSW,15.0,20.7,N/A,,Mostly Cloudy,200,2013-02-13 23:48:00
6:53 PM,73.0,71.1,93,29.89,8.0,SSW,16.1,20.7,N/A,,Overcast,200,2013-02-13 23:53:00
7:53 PM,66.0,60.1,81,29.94,9.0,NNW,20.7,36.8,0.00,Rain,Light Rain,330,2013-02-14 00:53:00
7:55 PM,64.4,59.0,83,29.95,10.0,NNW,13.8,36.8,0.00,Rain,Light Rain,330,2013-02-14 00:55:00
8:53 PM,64.9,52.0,63,29.96,10.0,North,13.8,20.7,0.05,,Overcast,360,2013-02-14 01:53:00
9:30 PM,64.4,53.6,68,29.96,10.0,North,10.4,-,N/A,,Overcast,360,2013-02-14 02:30:00
9:53 PM,64.9,55.9,73,29.98,10.0,NNE,4.6,-,N/A,,Overcast,20,2013-02-14 02:53:00
10:53 PM,64.9,54.0,68,29.99,10.0,North,4.6,-,N/A,,Overcast,350,2013-02-14 03:53:00
11:53 PM,66.0,53.1,63,29.99,10.0,North,5.8,-,0.00,,Overcast,360,2013-02-14 04:53:00